Pittsburgh Allegheny Co., PA

7:13 AM EDT on May 24, 2017 (GMT -0400)
Allegheny County

Weather History for KAGC - September, 2013

Change the Weather History Date:

Monday, September 23, 2013

  Actual Average Record
Temperature  
Mean Temperature 52 °F -  
Max Temperature 59 °F 71 °F 88 °F (2010)
Min Temperature 48 °F 50 °F 39 °F (1991)
Degree Days  
Heating Degree Days 12    
Growing Degree Days 2 (Base 50)    
Moisture  
Dew Point 43 °F    
Average Humidity 71    
Maximum Humidity 89    
Minimum Humidity 57    
Precipitation  
Precipitation 0.00 in - - ()
Sea Level Pressure  
Sea Level Pressure 30.12 in    
Wind  
Wind Speed 3 mph (North)    
Max Wind Speed 7 mph    
Max Gust Speed -    
Visibility 10 miles    
Events      
Averages and records for this station are not official NWS values.
T = Trace of Precipitation, MM = Missing Value Source: NWS Daily Summary

Daily Weather History Graph

Daily Weather History Graph

Search for Another Location

Airport or City:

Trip Planner

Search our weather history database for the weather conditions in past years. The results will help you decide how hot, cold, wet, or windy it might be!

Date:

Astronomy

Sep. 23, 2013 Rise Set
Actual Time 7:08 AM EDT 7:14 PM EDT
Civil Twilight 6:41 AM EDT 7:41 PM EDT
Nautical Twilight 6:09 AM EDT 8:13 PM EDT
Astronomical Twilight 5:37 AM EDT 8:45 PM EDT
Moon 9:45 PM EDT (9/23) 11:26 AM EDT (9/23)
Length of Visible Light 13h 00m
Length of Day
12h 06m
Waning Gibbous, 81% of the Moon is Illuminated
Sep 23
Waning Gibbous
Sep 26
Last Quarter
Oct 4
New
Oct 11
First Quarter
Oct 18
Full

Hourly Weather History & Observations

Time (EDT) Temp. Dew Point Humidity Pressure Visibility Wind Dir Wind Speed Gust Speed Precip Events Conditions
12:53 AM 52.0 °F 46.9 °F 83% 30.04 in 10.0 mi North 3.5 mph - N/A   Overcast
1:53 AM 51.1 °F 48.0 °F 89% 30.05 in 10.0 mi North 4.6 mph - N/A   Overcast
2:53 AM 51.1 °F 46.9 °F 86% 30.06 in 10.0 mi Variable 3.5 mph - N/A   Overcast
3:53 AM 51.1 °F 46.9 °F 86% 30.06 in 10.0 mi Calm Calm - N/A   Overcast
4:53 AM 51.1 °F 46.0 °F 83% 30.07 in 10.0 mi North 3.5 mph - N/A   Overcast
5:53 AM 51.1 °F 41.0 °F 68% 30.08 in 10.0 mi Calm Calm - N/A   Overcast
6:53 AM 51.1 °F 41.0 °F 68% 30.10 in 10.0 mi Calm Calm - N/A   Overcast
7:53 AM 50.0 °F 45.0 °F 83% 30.12 in 10.0 mi North 3.5 mph - N/A   Overcast
8:53 AM 52.0 °F 44.1 °F 74% 30.13 in 10.0 mi Variable 4.6 mph - N/A   Overcast
9:53 AM 52.0 °F 39.0 °F 61% 30.14 in 10.0 mi NNE 6.9 mph - N/A   Overcast
10:53 AM 52.0 °F 39.9 °F 63% 30.16 in 10.0 mi ENE 4.6 mph - N/A   Overcast
11:53 AM 52.0 °F 39.9 °F 63% 30.17 in 10.0 mi North 5.8 mph - N/A   Overcast
12:53 PM 53.1 °F 42.1 °F 66% 30.17 in 10.0 mi Variable 4.6 mph - N/A   Overcast
1:53 PM 54.0 °F 42.1 °F 64% 30.16 in 10.0 mi Calm Calm - N/A   Overcast
2:53 PM 54.0 °F 41.0 °F 62% 30.15 in 10.0 mi Calm Calm - N/A   Overcast
3:53 PM 55.9 °F 41.0 °F 57% 30.14 in 10.0 mi NNW 6.9 mph - N/A   Mostly Cloudy
4:53 PM 55.9 °F 42.1 °F 60% 30.14 in 10.0 mi North 5.8 mph - N/A   Mostly Cloudy
5:53 PM 55.0 °F 42.1 °F 62% 30.14 in 10.0 mi Variable 4.6 mph - N/A   Scattered Clouds
6:53 PM 54.0 °F 43.0 °F 66% 30.13 in 10.0 mi Variable 3.5 mph - N/A   Scattered Clouds
7:53 PM 51.1 °F 42.1 °F 71% 30.14 in 10.0 mi North 3.5 mph - N/A   Clear
8:53 PM 50.0 °F 42.1 °F 74% 30.15 in 10.0 mi NNW 3.5 mph - N/A   Clear
9:53 PM 50.0 °F 42.1 °F 74% 30.14 in 10.0 mi North 3.5 mph - N/A   Clear
10:53 PM 50.0 °F 42.1 °F 74% 30.14 in 10.0 mi Calm Calm - N/A   Clear
11:53 PM 48.9 °F 42.1 °F 77% 30.14 in 10.0 mi Calm Calm - N/A   Clear